| time (UTC) | temp F | wind direction | speed knots | gust knots | rain 1hr in | rain 24hr in | rain mn in | humidity % | barometer mb |
| 20260508103102 | 39 | 0 | 0.0 | 0.0 | 0.00 | 0.00 | 0.00 | 81 | 1010.2 |
| 20260508101555 | 38 | 0 | 0.0 | 0.0 | 0.00 | 0.00 | 0.00 | 81 | 1009.9 |
| 20260508100050 | 38 | 0 | 0.0 | 0.0 | 0.00 | 0.00 | 0.00 | 81 | 1009.7 |
| 20260508094548 | 38 | 0 | 0.0 | 0.0 | 0.00 | 0.00 | 0.00 | 81 | 1009.8 |
| 20260508093051 | 38 | 0 | 0.0 | 0.0 | 0.00 | 0.00 | 0.00 | 81 | 1009.6 |
| 20260508091549 | 38 | 0 | 0.0 | 0.0 | 0.00 | 0.00 | 0.00 | 82 | 1009.5 |
| 20260508090058 | 37 | 0 | 0.0 | 0.9 | 0.00 | 0.00 | 0.00 | 82 | 1009.6 |
| 20260508084548 | 37 | 0 | 0.0 | 0.9 | 0.00 | 0.00 | 0.00 | 82 | 1009.4 |
| 20260508083052 | 38 | 0 | 0.0 | 0.0 | 0.00 | 0.00 | 0.00 | 82 | 1009.2 |
| 20260508081554 | 38 | 0 | 0.0 | 0.0 | 0.00 | 0.00 | 0.00 | 81 | 1009.1 |
| 20260508080051 | 38 | 0 | 0.0 | 0.0 | 0.00 | 0.00 | 0.00 | 80 | 1008.8 |
| 20260508074550 | 39 | 0 | 0.0 | 0.9 | 0.00 | 0.01 | 0.00 | 78 | 1008.6 |
| 20260508073049 | 39 | 0 | 0.0 | 0.0 | 0.00 | 0.01 | 0.00 | 78 | 1008.2 |
| 20260508071552 | 39 | 0 | 0.0 | 0.9 | 0.00 | 0.01 | 0.00 | 77 | 1008.4 |
| 20260508070056 | 40 | 0 | 0.0 | 0.0 | 0.00 | 0.01 | 0.00 | 77 | 1008.4 |
| 20260508064548 | 40 | 0 | 0.0 | 0.0 | 0.00 | 0.01 | 0.00 | 75 | 1008.3 |
| 20260508063100 | 40 | 0 | 0.0 | 0.9 | 0.00 | 0.01 | 0.00 | 75 | 1008.3 |
| 20260508061550 | 41 | 0 | 0.0 | 0.0 | 0.00 | 0.01 | 0.00 | 77 | 1008.3 |
| 20260508060049 | 41 | 0 | 0.0 | 0.9 | 0.00 | 0.01 | 0.00 | 78 | 1008.4 |
| 20260508054547 | 42 | 0 | 0.0 | 0.9 | 0.00 | 0.01 | 0.00 | 76 | 1008.6 |
| 20260508053102 | 42 | 0 | 0.0 | 0.0 | 0.00 | 0.01 | 0.00 | 72 | 1008.7 |
| 20260508051548 | 43 | 0 | 0.0 | 0.0 | 0.00 | 0.01 | 0.00 | 72 | 1008.8 |
| 20260508050050 | 44 | 0 | 0.0 | 0.9 | 0.00 | 0.01 | 0.00 | 68 | 1009.0 |
| 20260508044545 | 45 | 0 | 0.0 | 0.9 | 0.00 | 0.04 | 0.00 | 66 | 1009.2 |
| 20260508043058 | 45 | 0 | 0.0 | 0.0 | 0.00 | 0.04 | 0.00 | 65 | 1009.1 |
| 20260508041553 | 46 | 0 | 0.0 | 0.0 | 0.00 | 0.04 | 0.00 | 63 | 1009.1 |
| 20260508040052 | 47 | 0 | 0.0 | 0.0 | 0.00 | 0.04 | 0.00 | 62 | 1009.2 |
| 20260508034554 | 48 | 0 | 0.0 | 0.9 | 0.00 | 0.04 | 0.04 | 60 | 1009.2 |
| 20260508033052 | 48 | 0 | 0.0 | 0.9 | 0.00 | 0.04 | 0.04 | 59 | 1009.2 |
| 20260508031549 | 49 | 0 | 0.0 | 0.9 | 0.00 | 0.04 | 0.04 | 58 | 1008.9 |
| 20260508030053 | 49 | 0 | 0.0 | 3.5 | 0.00 | 0.04 | 0.04 | 59 | 1008.9 |
| 20260508024551 | 49 | 0 | 0.0 | 1.7 | 0.00 | 0.04 | 0.04 | 56 | 1008.8 |
| 20260508023044 | 50 | 0 | 0.0 | 1.7 | 0.00 | 0.04 | 0.04 | 53 | 1008.8 |
| 20260508021555 | 50 | 0 | 0.0 | 0.9 | 0.00 | 0.04 | 0.04 | 53 | 1008.8 |
| 20260508020050 | 51 | 0 | 0.0 | 0.0 | 0.00 | 0.04 | 0.04 | 50 | 1008.7 |
| 20260508014549 | 51 | 13 | 0.0 | 0.9 | 0.00 | 0.04 | 0.04 | 51 | 1008.6 |
| 20260508013056 | 52 | 0 | 0.0 | 1.7 | 0.00 | 0.04 | 0.04 | 47 | 1008.3 |
| 20260508011553 | 52 | 0 | 0.0 | 0.9 | 0.00 | 0.04 | 0.04 | 47 | 1008.2 |
| 20260508010043 | 53 | 0 | 0.0 | 0.9 | 0.00 | 0.04 | 0.04 | 44 | 1007.8 |
| 20260508004547 | 54 | 0 | 0.0 | 1.7 | 0.00 | 0.05 | 0.04 | 43 | 1007.6 |
| 20260508003048 | 55 | 0 | 0.0 | 1.7 | 0.00 | 0.05 | 0.04 | 41 | 1007.5 |
| 20260508001610 | 56 | 0 | 0.0 | 0.9 | 0.00 | 0.05 | 0.04 | 41 | 1007.4 |
| 20260508000048 | 57 | 9 | 0.9 | 4.3 | 0.00 | 0.05 | 0.04 | 36 | 1007.2 |
| 20260507234549 | 57 | 16 | 0.9 | 4.3 | 0.00 | 0.11 | 0.04 | 35 | 1007.1 |
| 20260507233050 | 58 | 0 | 0.0 | 6.1 | 0.00 | 0.11 | 0.04 | 38 | 1007.1 |
| 20260507231550 | 59 | 131 | 0.9 | 4.3 | 0.00 | 0.11 | 0.04 | 36 | 1006.8 |
| 20260507230053 | 59 | 90 | 0.9 | 3.5 | 0.00 | 0.11 | 0.04 | 35 | 1006.8 |
| 20260507224552 | 60 | 161 | 0.9 | 6.1 | 0.00 | 0.12 | 0.04 | 33 | 1006.6 |
| 20260507223050 | 60 | 188 | 1.7 | 6.1 | 0.00 | 0.12 | 0.04 | 33 | 1006.5 |
| 20260507221550 | 61 | 335 | 1.7 | 6.1 | 0.00 | 0.12 | 0.04 | 33 | 1006.4 |
| 20260507220053 | 62 | 0 | 1.7 | 7.0 | 0.00 | 0.12 | 0.04 | 34 | 1006.3 |
| 20260507214552 | 63 | 0 | 0.9 | 4.3 | 0.00 | 0.15 | 0.04 | 32 | 1006.1 |
| 20260507213050 | 63 | 38 | 1.7 | 5.2 | 0.00 | 0.15 | 0.04 | 33 | 1006.0 |
| 20260507211549 | 63 | 311 | 1.7 | 10.4 | 0.00 | 0.15 | 0.04 | 34 | 1005.9 |
| 20260507210053 | 64 | 127 | 0.9 | 4.3 | 0.00 | 0.15 | 0.04 | 32 | 1005.9 |
| 20260507204551 | 64 | 58 | 1.7 | 8.7 | 0.00 | 0.22 | 0.04 | 31 | 1006.0 |
| 20260507203051 | 64 | 244 | 1.7 | 7.0 | 0.00 | 0.22 | 0.04 | 33 | 1005.9 |
| 20260507201556 | 64 | 142 | 0.9 | 9.6 | 0.00 | 0.22 | 0.04 | 30 | 1005.7 |
| 20260507200047 | 64 | 46 | 0.9 | 7.0 | 0.00 | 0.22 | 0.04 | 29 | 1005.9 |
| 20260507194549 | 65 | 264 | 1.7 | 7.0 | 0.00 | 0.25 | 0.04 | 29 | 1006.1 |
| 20260507193053 | 65 | 296 | 1.7 | 7.8 | 0.00 | 0.25 | 0.04 | 32 | 1006.2 |
| 20260507191555 | 65 | 0 | 0.9 | 5.2 | 0.00 | 0.25 | 0.04 | 37 | 1006.2 |
| 20260507190055 | 65 | 142 | 0.9 | 11.3 | 0.00 | 0.25 | 0.04 | 35 | 1006.5 |
| 20260507184602 | 64 | 49 | 1.7 | 7.8 | 0.00 | 0.25 | 0.04 | 36 | 1006.5 |
| 20260507183051 | 64 | 0 | 1.7 | 7.0 | 0.00 | 0.25 | 0.04 | 30 | 1006.5 |
| 20260507181600 | 63 | 155 | 1.7 | 7.8 | 0.00 | 0.25 | 0.04 | 30 | 1006.7 |
| 20260507180050 | 64 | 325 | 1.7 | 6.1 | 0.00 | 0.25 | 0.04 | 34 | 1006.8 |
| 20260507174550 | 64 | 281 | 1.7 | 7.0 | 0.00 | 0.25 | 0.04 | 36 | 1006.7 |
| 20260507173050 | 63 | 147 | 0.9 | 6.1 | 0.00 | 0.25 | 0.04 | 40 | 1006.7 |
| 20260507171555 | 62 | 223 | 0.9 | 7.8 | 0.00 | 0.25 | 0.04 | 44 | 1006.9 |
| 20260507170052 | 62 | 239 | 2.6 | 7.0 | 0.00 | 0.25 | 0.04 | 44 | 1007.0 |
| 20260507164550 | 62 | 195 | 1.7 | 5.2 | 0.00 | 0.25 | 0.04 | 43 | 1007.1 |
| 20260507163048 | 61 | 310 | 1.7 | 6.1 | 0.00 | 0.25 | 0.04 | 50 | 1007.2 |
| 20260507161550 | 59 | 182 | 0.0 | 3.5 | 0.00 | 0.25 | 0.04 | 59 | 1007.4 |
| 20260507160047 | 58 | 162 | 1.7 | 4.3 | 0.00 | 0.25 | 0.04 | 55 | 1007.6 |
| 20260507154550 | 59 | 360 | 0.9 | 5.2 | 0.00 | 0.25 | 0.04 | 60 | 1007.7 |
| 20260507153051 | 59 | 195 | 1.7 | 7.8 | 0.00 | 0.25 | 0.04 | 54 | 1007.7 |
| 20260507151556 | 59 | 0 | 0.0 | 3.5 | 0.00 | 0.25 | 0.04 | 55 | 1007.9 |
| 20260507150047 | 59 | 158 | 1.7 | 4.3 | 0.00 | 0.25 | 0.04 | 53 | 1008.2 |
| 20260507144555 | 58 | 109 | 0.9 | 4.3 | 0.00 | 0.25 | 0.04 | 51 | 1008.3 |
| 20260507143048 | 57 | 90 | 0.9 | 5.2 | 0.00 | 0.25 | 0.04 | 54 | 1008.2 |
| 20260507141549 | 57 | 0 | 0.9 | 5.2 | 0.00 | 0.25 | 0.04 | 57 | 1008.2 |
| 20260507140052 | 55 | 32 | 0.9 | 4.3 | 0.00 | 0.25 | 0.04 | 59 | 1008.1 |
| 20260507134555 | 55 | 13 | 0.0 | 3.5 | 0.00 | 0.25 | 0.04 | 60 | 1008.3 |
| 20260507133056 | 54 | 0 | 0.9 | 6.1 | 0.00 | 0.25 | 0.04 | 62 | 1008.5 |
| 20260507131559 | 54 | 28 | 0.9 | 4.3 | 0.00 | 0.25 | 0.04 | 65 | 1008.6 |
| 20260507130105 | 53 | 118 | 1.7 | 8.7 | 0.00 | 0.25 | 0.04 | 65 | 1008.8 |
| 20260507124553 | 52 | 236 | 0.9 | 5.2 | 0.00 | 0.25 | 0.04 | 70 | 1008.7 |
| 20260507123052 | 51 | 252 | 0.0 | 6.1 | 0.00 | 0.25 | 0.04 | 73 | 1008.8 |
| 20260507121604 | 51 | 342 | 0.0 | 7.0 | 0.00 | 0.25 | 0.04 | 76 | 1008.8 |
| 20260507120050 | 50 | 142 | 0.0 | 4.3 | 0.00 | 0.25 | 0.04 | 75 | 1008.9 |
| 20260507114601 | 50 | 42 | 0.9 | 3.5 | 0.00 | 0.25 | 0.04 | 78 | 1008.8 |
| 20260507113051 | 49 | 0 | 0.0 | 1.7 | 0.00 | 0.25 | 0.04 | 78 | 1008.8 |
| 20260507111550 | 49 | 0 | 0.0 | 1.7 | 0.00 | 0.25 | 0.04 | 81 | 1008.2 |
| 20260507110050 | 48 | 0 | 0.0 | 1.7 | 0.00 | 0.25 | 0.04 | 80 | 1008.8 |
| 20260507104548 | 49 | 0 | 0.0 | 1.7 | 0.00 | 0.25 | 0.04 | 84 | 1008.3 |